Location: Little Wilbraham
(52.2000°N, 0.2667°E)
Time: 12:08:27
(UTC+00:00)

Daily predictions for brighter satellites

Satellite Brightness Start Highest point End
(mag) Time Altitude Azimuth Time Altitude Azimuth Time Altitude Azimuth
SL-24 R/B - RUBIN 2 4.4 16:20:24 10° SSW 16:25:46 69° SE 16:31:53 10° NE
USA 307 2.6 16:22:11 10° WNW 16:26:03 72° N 16:29:54 10° E
Cosmos 1666 3.9 16:24:09 10° NNE 16:26:40 18° ENE 16:29:10 10° ESE
Meteor 2-3 Rocket 4.1 16:23:13 10° NNW 16:28:51 73° W 16:34:30 10° S
Cosmos 2084 Rocket 3.6 16:25:15 10° NW 16:29:03 66° SW 16:32:50 10° SE
ISS -3.4 16:26:58 10° W 16:30:20 69° SSW 16:33:39 10° ESE
Cosmos 2279 Rocket 4.2 16:25:34 10° N 16:31:39 50° ENE 16:37:39 10° SSE
Aureole 3 Rocket 3.2 16:27:26 10° N 16:32:47 65° ENE 16:36:39 10° SSE
Meteor 1-27 4.3 16:29:00 10° S 16:34:32 60° E 16:40:02 10° NNE
Spot 4 Rocket 4.4 16:30:24 10° S 16:35:31 71° WSW 16:40:41 10° NNW
ATLAS CENTAUR R/B 2.2 16:33:22 10° WNW 16:36:46 62° NNE 16:43:07 10° ESE
Cosmos 2237 Rocket 3.8 16:32:15 10° NW 16:37:30 41° WSW 16:42:42 10° S
Cosmos 1606 2.5 16:34:22 10° S 16:37:58 76° E 16:41:39 10° NNE
Cosmos 2058 Rocket 3.9 16:36:00 10° SSE 16:39:56 32° E 16:43:52 10° NNE
Cosmos 405 Rocket 3.2 16:43:13 10° SSE 16:46:47 39° E 16:50:24 10° NNE
Cosmos 1140 Rocket 4.2 16:43:20 10° NNW 16:47:59 31° NE 16:52:34 10° ESE
Cosmos 2150 Rocket 4.0 16:43:15 10° SSW 16:48:24 86° ESE 16:53:39 10° NNE
USA 306 1.2 16:49:33 10° WNW 16:51:50 81° SSW 16:54:00 10° ESE
Cosmos 1606 Rocket 3.6 16:48:23 10° S 16:52:51 89° W 16:57:19 10° N
SJ-7 4.3 16:49:54 10° SSE 16:53:52 81° ENE 16:57:55 10° NNW
SMAP 3.1 16:50:04 10° SSE 16:54:39 61° ENE 16:59:16 10° N
Cosmos 1726 Rocket 3.5 16:50:33 10° S 16:54:59 75° E 16:59:26 10° NNE
Cosmos 1500 3.2 16:54:18 10° N 16:57:45 47° ENE 17:01:10 10° SSE
Cosmos 1437 Rocket 2.5 16:58:16 10° NNW 17:02:00 84° ENE 17:05:44 10° SSE
Cosmos-2242 4.3 16:59:16 10° SE 17:02:29 21° E 17:05:03 13° NE
CZ-2D R/B 3.5 16:59:14 10° S 17:02:53 68° WSW 17:06:34 10° NNW
SL-8 R/B 4.3 17:02:23 10° W 17:07:02 53° S 17:11:42 10° ESE
Cosmos 2082 Rocket 4.3 17:05:53 10° NNW 17:07:29 11° N 17:09:06 10° NNE
Cosmos 2263 Rocket 2.8 17:02:47 10° S 17:07:51 37° ESE 17:12:14 13° NE
NOAA 6 4.5 17:03:47 10° SE 17:08:29 37° ENE 17:13:11 10° N
RESURS DK-1 4.2 17:06:28 10° N 17:08:41 14° NNE 17:09:17 14° NE
Cosmos 2151 2.9 17:05:21 10° N 17:09:38 88° E 17:13:54 10° S
Tsikada Rocket 4.3 17:03:36 10° SSW 17:09:49 69° WNW 17:16:01 10° N
Cosmos 2227 Rocket 2.2 17:04:38 10° SSW 17:10:19 86° WNW 17:16:01 10° NNE
Cosmos 2298 Rocket 4.4 17:05:54 10° SW 17:11:11 65° WNW 17:16:31 10° NNE
CZ-2C R/B 3.0 17:10:04 10° S 17:13:35 64° WSW 17:17:10 10° NNW
Cosmos 1238 Rocket 3.6 17:11:54 10° SSW 17:15:29 46° WNW 17:18:40 10° N
CORIOLIS 4.2 17:12:40 10° SSE 17:18:01 88° WSW 17:23:26 10° NNW
Cosmos 1603 4.0 17:13:00 10° NNW 17:18:28 44° NE 17:23:52 10° ESE
Helios 1B rocket 3.7 17:14:47 10° S 17:18:32 42° W 17:22:19 10° NNW
YAOGAN 1 3.8 17:19:24 20° ENE 17:19:50 20° ENE 17:22:59 10° NNE
Cosmos 2251 Rocket 3.9 17:15:08 10° NNW 17:20:13 42° NE 17:25:19 10° SE
CZ-4B R/B 3.5 17:17:26 10° SSE 17:21:00 90° S 17:24:40 10° NNW
Cosmos 1812 3.7 17:18:40 10° SE 17:21:41 24° E 17:22:20 23° ENE
SL-16 R/B 4.3 17:18:26 10° N 17:23:38 28° NW 17:28:48 10° WSW
CZ-4B R/B 3.5 17:19:05 10° SSE 17:24:05 60° ENE 17:28:58 10° N
Cosmos 407 Rocket 3.8 17:19:58 10° NNW 17:24:56 42° NE 17:29:48 10° SE
ATLAS 2AS CENTAUR R/B 3.1 17:18:59 10° NW 17:25:44 43° NNE 17:30:16 19° E
USA 305 2.5 17:22:08 10° WNW 17:25:58 88° SSW 17:28:37 19° ESE
Meteor 1-31 Rocket 2.9 17:26:35 10° S 17:30:16 73° WSW 17:34:00 10° NNW
Lacrosse 4 Rocket 1.5 17:26:11 10° NNW 17:30:31 56° NE 17:34:32 11° SE
Cosmos 724 4.5 17:25:02 10° SSW 17:31:07 62° SE 17:35:29 19° NE
SL-16 R/B 3.3 17:26:19 10° NW 17:31:45 47° WSW 17:37:09 10° S
Cosmos 1544 4.4 17:33:41 10° NNW 17:36:44 37° W 17:39:45 10° SSW
IGS 5A 4.5 17:44:25 27° NE 17:44:25 27° NE 17:47:04 10° N
Cosmos 1076 Rocket 4.5 17:41:19 10° NNW 17:45:33 50° W 17:49:46 10° S
Cosmos 1943 3.1 17:40:16 10° NNW 17:45:57 82° ENE 17:51:36 10° SSE
Cosmos 1607 4.0 17:43:32 10° SW 17:49:55 90° SE 17:54:20 22° NE
Cosmos 1812 Rocket 3.8 17:46:39 10° SSE 17:50:47 45° E 17:52:19 32° NE
Cosmos 1190 Rocket 4.3 17:48:47 10° NNW 17:53:53 44° NE 17:56:11 28° ESE
Radarsat Rocket 3.8 17:48:20 10° SSE 17:54:08 82° ENE 18:00:16 10° NNW
SL-08 R/B 3.8 17:54:02 35° E 17:54:16 35° E 17:58:30 10° SSE
Cosmos 1602 4.2 17:53:43 10° NNW 17:57:22 59° W 18:01:03 10° S
ADEOS 3.5 17:53:34 10° SSE 17:58:43 64° ENE 18:03:54 10° N
Cosmos 2297 Rocket 3.7 17:54:03 10° WSW 17:59:03 31° NW 18:03:49 11° NNE
Cosmos 2219 3.6 17:55:07 10° SW 18:00:40 61° NW 18:05:03 17° NNE
USA 307 3.3 17:57:47 10° WNW 18:01:32 50° SSW 18:03:12 28° SSE
Cosmos 1666 3.8 17:58:17 10° NNW 18:01:38 41° W 18:04:58 10° SSW
ADEOS Rocket 4.2 18:05:29 21° NNE 18:05:29 21° NNE 18:08:25 10° N
Meteor 1-25 Rocket 4.1 17:59:50 10° NNW 18:05:34 84° ENE 18:11:12 10° SSE
ISS -1.7 18:03:55 10° W 18:06:44 25° SSW 18:08:24 17° S
USA 234 3.3 18:03:40 31° ENE 18:06:59 67° SE 18:13:29 10° SW
Cosmos 1553 Rocket 4.3 18:01:57 10° N 18:07:57 41° ENE 18:10:27 29° ESE
BREEZE-M DEB (TANK) 3.2 18:09:56 10° SW 18:10:54 24° SW 18:10:54 24° SW
COSMO-SKYMED 1 2.4 18:11:54 44° NNE 18:13:12 70° ESE 18:17:31 10° S
Cosmos 2344 3.7 18:06:23 10° SSW 18:13:32 49° ESE 18:16:08 35° ENE
Cosmos 2082 3.9 18:12:20 10° SW 18:17:55 69° NW 18:21:19 25° NNE
Helios 1A 3.3 18:20:32 25° N 18:22:50 65° WNW 18:26:56 10° SSW
Cosmos 2026 Rocket 3.9 18:17:11 10° S 18:23:20 64° E 18:29:37 10° NNE
Cosmos 1833 Rocket 4.0 18:18:55 10° NNW 18:22:32 23° NNE 18:22:32 23° NNE
Lacrosse 5 3.6 18:22:56 10° S 18:24:56 18° SSE 18:24:56 18° SSE
Cosmos 2195 Rocket 4.4 18:23:11 10° S 18:29:30 81° E 18:35:49 10° NNE
Cosmos 1140 Rocket 4.2 18:24:57 10° NNW 18:30:00 52° WSW 18:34:59 10° S
SME Rocket 4.2 18:27:20 10° SSE 18:32:55 82° ENE 18:41:43 10° NNW
CZ-4B R/B 2.9 18:34:38 82° NNW 18:34:38 82° NNW 18:38:43 10° NNW
Cosmos 1092 Rocket 3.8 18:30:30 10° S 18:36:38 80° E 18:42:48 10° NNE
Cosmos-2242 3.8 18:35:19 10° SSW 18:39:32 50° WNW 18:41:45 26° N
Nadezhda 4 Rocket 4.5 18:34:09 10° SSW 18:40:12 59° WNW 18:46:16 10° N
CZ-4B R/B 3.9 18:42:41 40° NNE 18:42:41 40° NNE 18:46:36 10° N
ATLAS CENTAUR R/B 3.9 18:37:15 10° WNW 18:41:39 43° SW 18:49:47 10° SSE
Meteor 1-5 Rocket 4.1 18:41:26 10° NNW 18:47:05 90° WNW 18:52:54 10° S
Cosmos 676 Rocket 4.2 18:41:51 10° NNW 18:46:18 57° N 18:46:18 57° N
RESURS DK-1 4.2 18:43:19 10° NNW 18:44:58 23° NNW 18:44:58 23° NNW
Cosmos 2227 4.1 18:43:40 10° SSW 18:49:26 87° ESE 18:50:09 70° NE
Cosmos 2263 Rocket 2.9 18:46:18 10° SW 18:51:40 48° NW 18:53:55 31° N
Cosmos 1844 Rocket 3.7 18:47:30 10° S 18:50:38 32° S 18:50:38 32° S
Cosmos 2082 Rocket 4.1 18:50:10 10° NNW 18:52:13 16° N 18:52:13 16° N
Cosmos 2227 Rocket 4.0 18:50:37 10° W 18:55:11 24° NW 18:58:05 17° N
YAOGAN 1 3.4 18:56:27 47° NW 18:56:27 47° NW 18:59:46 10° NNW
Cosmos 1812 4.4 18:53:25 10° SW 18:56:44 31° WNW 18:56:48 31° WNW
Lacrosse 4 Rocket 3.7 19:05:08 10° WNW 19:08:37 24° WSW 19:10:41 17° SSW
ATLAS 2AS CENTAUR R/B 2.6 19:10:14 10° NW 19:17:13 78° SW 19:17:43 73° S
Cosmos 1818 4.5 19:17:30 10° SW 19:21:04 43° SW 19:21:04 43° SW
USA 234 3.6 19:51:01 60° WNW 19:51:01 60° WNW 19:56:33 10° W
Cosmos 2344 4.2 20:20:40 10° WSW 20:26:10 46° WNW 20:26:10 46° WNW
